Location: Eurasberg
(48.3353°N, 11.0839°E)
Time: 14:27:21
(UTC+00:00)

Cosmos 2297 Rocket - Pass Details

Date: 18 January 2026
Orbit: 838 x 843 km, 71.0° (Epoch: 18 February)

Event Time Altitude Azimuth Distance (km) Brightness Sun altitude
Rises 06:13:44 0° 336° (NNW) 3,413 4.9 -7.7°
Reaches altitude 10° 06:17:10 10° 357° (N) 2,474 4.4 -7.1°
Maximum altitude 06:20:43 17° 36° (NE) 2,042 4.4 -6.6°
Drops below altitude 10° 06:24:14 10° 75° (ENE) 2,467 5.5 -6.1°
Sets 06:27:39 0° 96° (E) 3,398 7.0 -5.5°
